DAL1428 KSLC-KSEA

Flight info

Callsign DAL1428
Flight time N/A
Altitude 34000
Route CGULL1 TWF PDT CHINS5
Aircraft B739/M-SDE2E3FGHIRWXY/LB1

Departure

Time N/A
Airport Salt Lake City International Airport (KSLC)

Arrival

Time 2026-05-04 22:57
Airport Seattle–Tacoma International Airport (KSEA)
Time Latitude Longitude Altitude Speed Heading
2026-05-04 22:11 44.91689 -117.78960 33876 ft 418 kts 319°
2026-05-04 22:11 44.93747 -117.81922 33866 ft 418 kts 319°
2026-05-04 22:12 44.97817 -117.87797 33869 ft 419 kts 319°
2026-05-04 22:12 45.01866 -117.93652 33851 ft 419 kts 319°
2026-05-04 22:13 45.05938 -117.99550 33855 ft 419 kts 319°
2026-05-04 22:13 45.10010 -118.05464 33861 ft 418 kts 319°
2026-05-04 22:14 45.14038 -118.11321 33862 ft 418 kts 319°
2026-05-04 22:14 45.18083 -118.17214 33856 ft 417 kts 319°
2026-05-04 22:15 45.22128 -118.23133 33902 ft 417 kts 319°
2026-05-04 22:15 45.26173 -118.29061 33902 ft 418 kts 319°
2026-05-04 22:16 45.30212 -118.34991 33903 ft 418 kts 319°
2026-05-04 22:16 45.34261 -118.40948 33901 ft 418 kts 319°
2026-05-04 22:17 45.38269 -118.46857 33906 ft 418 kts 319°
2026-05-04 22:17 45.42301 -118.52822 33902 ft 418 kts 318°
2026-05-04 22:18 45.46341 -118.58812 33885 ft 418 kts 319°
2026-05-04 22:18 45.50354 -118.64753 33879 ft 418 kts 319°
2026-05-04 22:19 45.54400 -118.70768 33854 ft 417 kts 319°
2026-05-04 22:19 45.58388 -118.76718 33853 ft 417 kts 319°
2026-05-04 22:20 45.62398 -118.82711 33858 ft 416 kts 318°
2026-05-04 22:20 45.66393 -118.88691 33847 ft 416 kts 318°
2026-05-04 22:21 45.70375 -118.94699 33823 ft 417 kts 317°
2026-05-04 22:21 45.74172 -119.00990 33814 ft 418 kts 315°
2026-05-04 22:22 45.77880 -119.07341 33813 ft 418 kts 315°
2026-05-04 22:22 45.81623 -119.13727 33816 ft 418 kts 315°
2026-05-04 22:23 45.85367 -119.20090 33807 ft 418 kts 315°
2026-05-04 22:23 45.89125 -119.26474 33807 ft 418 kts 315°
2026-05-04 22:24 45.92881 -119.32870 33821 ft 419 kts 315°
2026-05-04 22:24 45.96615 -119.39242 33812 ft 419 kts 315°
2026-05-04 22:25 46.00373 -119.45672 33809 ft 420 kts 315°
2026-05-04 22:25 46.04139 -119.52131 33798 ft 420 kts 315°
2026-05-04 22:26 46.07894 -119.58586 33796 ft 420 kts 315°
2026-05-04 22:26 46.11624 -119.65014 33811 ft 420 kts 315°
2026-05-04 22:27 46.15378 -119.71497 33802 ft 420 kts 315°
2026-05-04 22:27 46.19123 -119.77978 33827 ft 419 kts 315°
2026-05-04 22:28 46.22858 -119.84460 33817 ft 419 kts 315°
2026-05-04 22:28 46.26552 -119.90883 33802 ft 418 kts 315°
2026-05-04 22:29 46.30255 -119.97338 33799 ft 417 kts 315°
2026-05-04 22:29 46.33962 -120.03815 33803 ft 416 kts 315°
2026-05-04 22:30 46.37642 -120.10260 33813 ft 415 kts 315°
2026-05-04 22:30 46.41306 -120.16692 33815 ft 414 kts 315°
2026-05-04 22:31 46.44965 -120.23070 33811 ft 413 kts 320°
2026-05-04 22:31 46.48594 -120.29537 33809 ft 414 kts 314°
2026-05-04 22:32 46.52232 -120.36010 33820 ft 413 kts 315°
2026-05-04 22:32 46.55908 -120.42476 33825 ft 414 kts 315°
2026-05-04 22:33 46.59372 -120.49150 33814 ft 416 kts 310°
2026-05-04 22:33 46.61017 -120.52619 33394 ft 415 kts 310°
2026-05-04 22:33 46.62625 -120.56049 32962 ft 410 kts 309°
2026-05-04 22:33 46.64220 -120.59451 32520 ft 403 kts 310°
2026-05-04 22:34 46.65802 -120.62804 32026 ft 399 kts 310°
2026-05-04 22:34 46.67375 -120.66123 31579 ft 395 kts 310°
2026-05-04 22:34 46.68934 -120.69404 31111 ft 392 kts 309°
2026-05-04 22:34 46.70472 -120.72641 30658 ft 388 kts 309°
2026-05-04 22:35 46.72008 -120.75879 30212 ft 385 kts 309°
2026-05-04 22:35 46.73506 -120.79037 29758 ft 382 kts 309°
2026-05-04 22:35 46.75009 -120.82210 29254 ft 379 kts 309°
2026-05-04 22:35 46.76500 -120.85360 28806 ft 375 kts 309°
2026-05-04 22:36 46.77979 -120.88480 28352 ft 372 kts 308°
2026-05-04 22:36 46.79439 -120.91578 27911 ft 368 kts 308°
2026-05-04 22:36 46.80880 -120.94638 27485 ft 365 kts 308°
2026-05-04 22:36 46.82317 -120.97690 27053 ft 362 kts 308°
2026-05-04 22:37 46.83736 -121.00706 26621 ft 359 kts 308°
2026-05-04 22:37 46.85153 -121.03677 26197 ft 355 kts 308°
2026-05-04 22:37 46.86536 -121.06612 25776 ft 354 kts 308°
2026-05-04 22:37 46.87938 -121.09618 25343 ft 351 kts 308°
2026-05-04 22:38 46.89307 -121.12561 24928 ft 349 kts 308°
2026-05-04 22:38 46.90651 -121.15447 24529 ft 347 kts 307°
2026-05-04 22:38 46.92011 -121.18364 24125 ft 346 kts 307°
2026-05-04 22:38 46.93365 -121.21269 23700 ft 345 kts 308°
2026-05-04 22:39 46.94757 -121.24119 23221 ft 341 kts 310°
2026-05-04 22:39 46.96127 -121.26932 22819 ft 339 kts 307°
2026-05-04 22:39 46.97425 -121.29816 22362 ft 337 kts 307°
2026-05-04 22:39 46.98706 -121.32658 21972 ft 335 kts 307°
2026-05-04 22:40 46.99999 -121.35491 21564 ft 333 kts 307°
2026-05-04 22:40 47.01270 -121.38255 21169 ft 331 kts 307°
2026-05-04 22:40 47.02573 -121.41076 20774 ft 329 kts 307°
2026-05-04 22:40 47.03855 -121.43846 20376 ft 327 kts 308°
2026-05-04 22:41 47.05133 -121.46592 19999 ft 324 kts 307°
2026-05-04 22:41 47.06376 -121.49287 19617 ft 322 kts 307°
2026-05-04 22:41 47.07629 -121.52009 19225 ft 321 kts 307°
2026-05-04 22:41 47.08881 -121.54732 18833 ft 321 kts 307°
2026-05-04 22:42 47.10127 -121.57434 18467 ft 320 kts 307°
2026-05-04 22:42 47.11366 -121.60135 18078 ft 318 kts 307°
2026-05-04 22:42 47.12606 -121.62829 17647 ft 317 kts 307°
2026-05-04 22:42 47.13840 -121.65506 17256 ft 316 kts 307°
2026-05-04 22:43 47.15065 -121.68174 16852 ft 314 kts 307°
2026-05-04 22:43 47.16274 -121.70812 16468 ft 313 kts 307°
2026-05-04 22:43 47.17483 -121.73452 16097 ft 311 kts 306°
2026-05-04 22:43 47.18687 -121.76085 15705 ft 310 kts 306°
2026-05-04 22:44 47.19892 -121.78719 15309 ft 309 kts 307°
2026-05-04 22:44 47.21076 -121.81343 14976 ft 307 kts 305°
2026-05-04 22:44 47.22251 -121.83958 14756 ft 305 kts 306°
2026-05-04 22:44 47.23441 -121.86555 14515 ft 308 kts 306°
2026-05-04 22:45 47.24649 -121.89183 14292 ft 312 kts 306°
2026-05-04 22:45 47.27040 -121.94412 13807 ft 314 kts 306°
2026-05-04 22:45 47.28258 -121.97090 13557 ft 313 kts 306°
2026-05-04 22:46 47.29469 -121.99757 13288 ft 313 kts 306°
2026-05-04 22:46 47.30672 -122.02412 13046 ft 312 kts 306°
2026-05-04 22:46 47.31860 -122.05037 12813 ft 310 kts 306°
2026-05-04 22:46 47.33047 -122.07658 12578 ft 306 kts 306°
2026-05-04 22:47 47.34223 -122.10261 12346 ft 303 kts 306°
2026-05-04 22:47 47.35391 -122.12847 12114 ft 300 kts 306°
2026-05-04 22:47 47.36551 -122.15362 11613 ft 301 kts 311°
2026-05-04 22:47 47.38221 -122.17266 10840 ft 311 kts 335°
2026-05-04 22:48 47.40226 -122.18581 10015 ft 318 kts 338°
2026-05-04 22:48 47.42240 -122.19829 9786 ft 301 kts 338°
2026-05-04 22:48 47.44119 -122.21000 9602 ft 284 kts 338°
2026-05-04 22:48 47.45891 -122.21967 9470 ft 267 kts 343°
2026-05-04 22:49 47.47634 -122.22650 9353 ft 251 kts 351°
2026-05-04 22:49 47.49279 -122.22954 9229 ft 240 kts 354°
2026-05-04 22:49 47.50898 -122.23189 9092 ft 228 kts 355°
2026-05-04 22:49 47.52475 -122.23349 8621 ft 230 kts 358°
2026-05-04 22:50 47.54058 -122.23438 8340 ft 225 kts 358°
2026-05-04 22:50 47.55612 -122.23518 7966 ft 224 kts 358°
2026-05-04 22:50 47.57169 -122.23595 7594 ft 223 kts 358°
2026-05-04 22:50 47.58732 -122.23670 7183 ft 226 kts 358°
2026-05-04 22:51 47.60305 -122.23746 6772 ft 227 kts 358°
2026-05-04 22:51 47.61891 -122.23817 6388 ft 227 kts 358°
2026-05-04 22:51 47.63435 -122.23882 6434 ft 224 kts 358°
2026-05-04 22:51 47.65070 -122.23945 6480 ft 249 kts 358°
2026-05-04 22:52 47.66259 -122.24050 6145 ft 268 kts 349°
2026-05-04 22:52 47.67866 -122.25357 5695 ft 273 kts 314°
2026-05-04 22:52 47.68756 -122.28720 5190 ft 267 kts 268°
2026-05-04 22:52 47.68483 -122.30521 4839 ft 269 kts 246°
2026-05-04 22:53 47.67248 -122.32478 4754 ft 257 kts 212°
2026-05-04 22:53 47.65670 -122.33838 4295 ft 259 kts 213°
2026-05-04 22:53 47.64044 -122.34841 3859 ft 259 kts 185°
2026-05-04 22:53 47.62378 -122.34189 3619 ft 248 kts 144°
2026-05-04 22:54 47.61041 -122.32649 3325 ft 245 kts 144°
2026-05-04 22:54 47.59513 -122.31710 3002 ft 235 kts 178°
2026-05-04 22:54 47.57917 -122.31687 2694 ft 225 kts 181°
2026-05-04 22:54 47.56389 -122.31744 2386 ft 212 kts 184°
2026-05-04 22:55 47.54989 -122.31869 2103 ft 195 kts 184°
2026-05-04 22:55 47.53724 -122.31970 1835 ft 176 kts 185°
2026-05-04 22:55 47.52558 -122.31911 1620 ft 157 kts 178°
2026-05-04 22:55 47.51506 -122.31749 1454 ft 148 kts 180°
2026-05-04 22:56 47.50494 -122.31781 1305 ft 146 kts 188°
2026-05-04 22:56 47.49448 -122.31813 1144 ft 153 kts 181°
2026-05-04 22:56 47.48386 -122.31761 964 ft 153 kts 185°
2026-05-04 22:56 47.47317 -122.31785 771 ft 149 kts 182°
2026-05-04 22:57 47.46316 -122.31779 440 ft 138 kts 184°
2026-05-04 22:57 47.45487 -122.31795 393 ft 106 kts 180°
2026-05-04 22:57 47.45037 -122.31797 393 ft 26 kts 173°
2026-05-04 22:57 47.44871 -122.31733 393 ft 24 kts 158°
2026-05-04 22:58 47.44734 -122.31614 393 ft 23 kts 132°
2026-05-04 22:58 47.44664 -122.31451 393 ft 11 kts 94°
2026-05-04 22:58 47.44660 -122.31366 393 ft 8 kts 93°
2026-05-04 22:58 47.44656 -122.31291 393 ft 7 kts 95°
2026-05-04 22:59 47.44651 -122.31220 393 ft 7 kts 95°
2026-05-04 22:59 47.44643 -122.31151 393 ft 7 kts 103°
2026-05-04 22:59 47.44617 -122.31076 393 ft 10 kts 132°
2026-05-04 22:59 47.44544 -122.31014 393 ft 14 kts 154°
2026-05-04 23:00 47.44444 -122.30932 393 ft 19 kts 148°
2026-05-04 23:00 47.44352 -122.30789 393 ft 21 kts 104°
2026-05-04 23:00 47.44383 -122.30642 393 ft 15 kts 19°
2026-05-04 23:00 47.44489 -122.30632 393 ft 16 kts
2026-05-04 23:01 47.44605 -122.30631 393 ft 17 kts 360°
2026-05-04 23:01 47.44728 -122.30631 393 ft 18 kts
2026-05-04 23:01 47.44805 -122.30550 393 ft 12 kts 87°
2026-05-04 23:01 47.44777 -122.30427 393 ft 14 kts 130°
2026-05-04 23:02 47.44715 -122.30312 393 ft 15 kts 123°
2026-05-04 23:02 47.44661 -122.30196 393 ft 14 kts 156°
2026-05-04 23:02 47.44575 -122.30228 393 ft 9 kts 211°
2026-05-04 23:02 47.44531 -122.30278 393 ft 8 kts 234°
2026-05-04 23:03 47.44526 -122.30308 393 ft 3 kts 265°
2026-05-04 23:03 47.44526 -122.30324 393 ft 0 kts 270°